Theta_e
309 306 311 311 314 311 316 318 315 317 312 313 314 317 328 327 329 332 327 334 335 340 340 341 339 338 338 337 336 336 335 336 335 336 336 336 336 336 336 336 336 336 335 334 333 333 333 332 331
307 309 310 304 309 312 310 309 312 312 312 312 316 318 319 327 326 327 329 335 337 339 340 339 338 337 337 336 335 334 334 334 335 335 335 335 335 335 335 334 334 333 332 331 330 327 328 329 330
305 310 308 310 307 308 308 306 307 307 307 311 313 311 317 322 324 329 331 336 338 339 339 338 336 336 336 334 333 333 333 333 332 331 332 334 334 332 332 331 330 329 327 324 322 318 315 315 319
307 306 304 309 311 307 306 307 308 310 311 309 311 315 312 318 324 330 331 336 338 338 337 336 335 334 334 332 333 331 330 330 328 328 327 327 327 326 325 325 323 319 318 315 310 306 304 303 303
306 303 308 309 309 308 305 305 307 310 309 310 311 312 314 319 326 330 333 334 336 336 336 336 334 333 331 331 330 329 328 328 326 325 325 323 323 321 319 318 318 313 310 307 304 303 302 302 302
305 303 307 307 307 307 307 307 308 308 307 310 312 310 313 317 326 333 333 333 333 333 334 334 332 332 329 329 328 327 326 326 324 323 323 320 318 318 319 316 312 308 304 303 301 301 301 301 301
305 305 308 308 306 307 307 305 306 306 306 307 309 311 310 323 328 332 331 331 331 331 331 332 331 329 328 328 326 325 324 323 322 321 320 317 314 313 310 306 304 302 302 301 301 301 301 301 301
301 304 306 305 308 308 308 305 308 306 308 306 308 312 313 317 328 331 330 330 330 329 329 330 329 327 327 325 324 323 321 320 318 316 313 309 306 303 302 302 301 301 301 301 301 301 301 301 301
300 303 305 307 307 308 307 307 306 305 307 307 306 308 309 323 327 327 326 327 328 328 328 328 327 326 325 324 323 321 319 318 316 311 307 303 302 301 300 301 301 301 301 302 301 301 301 301 301
302 303 304 306 307 307 309 309 308 307 306 306 309 313 312 323 324 324 323 323 323 326 326 326 324 324 323 322 321 319 317 315 310 304 302 301 301 300 300 300 300 300 301 300 300 300 300 300 300
302 305 305 306 306 305 306 308 307 306 306 304 306 312 314 321 324 324 323 323 322 322 324 324 323 322 321 321 320 318 314 309 302 302 302 302 301 300 300 300 300 300 300 300 300 299 299 299 299
303 303 305 305 305 308 308 307 306 303 306 305 303 311 317 321 322 322 323 322 321 321 323 322 322 320 319 320 318 316 311 305 301 301 302 302 301 300 300 300 300 300 299 299 299 299 299 299 299
305 304 304 305 305 304 305 305 306 304 303 302 306 314 319 322 322 322 322 321 320 320 321 321 321 320 319 318 316 313 307 301 301 301 302 301 300 300 300 300 299 299 299 299 299 298 298 298 298
306 305 306 305 305 304 305 305 305 304 303 303 307 312 315 319 320 320 320 320 319 319 320 320 320 320 319 317 315 312 305 301 301 301 301 301 300 300 300 299 299 299 299 299 298 298 298 298 298
307 308 308 307 306 306 306 308 308 305 305 303 300 307 313 316 318 318 319 319 319 320 319 320 319 318 318 316 314 311 306 301 302 302 301 300 300 300 300 299 299 299 298 298 298 297 297 297 297
307 306 310 309 308 307 308 312 309 308 307 306 301 300 306 312 313 317 318 319 318 318 318 317 317 317 316 315 312 310 305 302 302 301 301 300 300 300 299 299 299 298 298 298 297 296 296 296 296
306 311 308 309 308 308 309 311 310 307 307 308 307 302 301 303 308 313 316 317 318 318 317 317 317 317 316 314 312 310 305 303 302 302 301 300 299 299 298 298 298 298 297 297 296 296 296 296 295
309 308 307 308 307 308 309 309 310 308 308 307 305 301 302 301 302 307 312 314 317 317 316 317 316 315 315 313 311 308 305 303 302 302 301 299 298 298 298 298 297 297 297 296 295 295 295 294 294
307 307 308 307 308 309 310 310 310 308 306 305 304 302 300 301 302 303 306 311 314 315 316 316 314 312 311 309 307 304 303 302 301 301 301 299 298 298 297 297 297 296 296 295 295 294 294 294 294
310 309 308 307 306 307 308 309 308 307 308 309 307 306 302 301 299 298 302 306 309 312 314 313 313 311 310 307 305 302 302 301 301 300 300 299 298 298 297 296 296 296 295 295 294 294 293 293 294
308 309 309 309 307 307 307 309 308 306 305 306 306 305 305 303 301 298 297 301 305 309 311 312 311 310 309 307 304 302 301 300 299 299 299 298 298 297 297 296 296 295 295 294 294 293 292 293 293
308 306 307 308 309 310 307 311 308 308 308 308 309 307 305 301 301 302 299 298 301 306 309 310 310 308 307 306 304 302 301 299 299 299 298 298 297 297 296 296 295 294 294 293 292 292 292 292 292
308 306 307 308 310 310 310 311 309 306 308 308 309 309 306 305 303 304 300 300 300 303 306 308 307 305 304 305 303 301 300 299 299 299 298 297 296 296 295 295 294 294 293 292 292 291 291 291 292
307 307 307 308 310 310 308 310 307 306 307 307 307 307 307 307 306 304 303 300 300 301 303 305 304 304 303 302 301 301 299 299 298 297 297 296 295 295 294 294 293 292 292 291 291 290 290 290 290
304 309 310 310 310 310 305 308 307 304 305 306 306 305 306 306 307 306 302 300 299 298 299 302 302 301 301 301 300 300 300 300 299 298 296 296 295 294 293 293 292 292 291 290 290 290 290 290 289
304 307 309 311 310 306 305 308 308 305 305 301 301 302 304 303 304 304 305 301 299 297 297 299 302 299 300 299 299 300 300 299 299 298 297 296 295 295 294 293 292 291 290 290 289 289 289 289 288
302 305 306 306 286 295 300 303 305 303 302 303 304 302 304 303 302 302 301 299 299 297 297 298 299 298 299 298 298 299 299 299 298 298 298 297 296 295 293 292 291 290 289 289 288 288 288 288 287
304 305 308 308 310 309 303 300 303 298 302 302 302 301 299 298 298 299 297 296 296 296 296 297 297 296 297 298 298 298 298 298 298 297 296 295 294 293 292 291 290 289 289 289 288 288 287 287 287
305 305 302 306 307 306 307 306 295 300 298 296 296 296 294 294 294 294 293 291 293 294 295 294 294 294 294 295 296 297 296 295 295 294 294 293 293 292 291 290 290 289 288 288 287 287 287 286 286
301 302 302 302 298 297 296 298 285 284 285 286 290 293 292 291 287 288 286 286 288 290 291 291 292 292 293 295 295 295 294 293 293 292 292 292 291 290 290 289 289 288 287 287 286 286 286 285 284
Wind_Speed
7 3 1 3 3 4 4 8 2 8 4 3 2 4 8 3 6 5 10 12 26 27 26 27 24 22 22 20 18 17 17 17 17 17 17 16 16 16 15 13 12 12 10 8 9 9 8 6 3
3 2 3 3 4 3 6 5 8 12 7 3 2 2 1 2 2 4 15 19 28 29 28 27 24 22 21 20 19 18 17 17 17 17 18 17 17 15 14 13 12 10 9 10 10 9 6 4 3
3 3 3 4 4 7 6 7 11 6 10 6 3 1 4 4 1 14 11 29 33 32 29 26 24 22 19 19 19 18 17 17 17 17 18 17 17 16 15 14 13 12 11 10 9 8 6 5 3
5 4 3 3 11 6 7 5 4 4 1 6 3 3 2 3 8 10 23 30 36 34 31 27 22 20 19 18 18 17 17 17 16 17 17 16 15 15 14 13 12 11 9 8 6 5 4 4 4
3 3 2 3 8 5 6 8 2 1 4 3 4 5 3 2 6 20 33 32 34 34 32 28 24 22 18 18 18 18 17 17 16 16 16 15 14 13 12 11 10 9 7 5 3 2 2 2 2
2 2 1 10 13 3 6 11 2 5 6 4 3 6 4 1 16 28 32 30 30 31 31 28 26 23 18 21 20 19 19 18 17 16 15 14 13 12 11 10 9 7 5 3 3 2 2 2 2
6 4 6 4 8 5 12 7 7 9 7 9 3 7 2 4 20 32 29 28 28 29 30 29 27 24 20 23 22 23 21 20 18 17 15 14 14 12 10 9 8 6 5 4 3 2 2 2 3
4 5 5 6 14 15 5 6 4 8 11 2 10 7 6 6 25 32 28 28 27 28 29 29 27 26 23 25 23 24 23 22 21 19 18 16 13 11 10 9 8 6 5 3 2 0 1 2 3
4 3 7 10 12 12 2 5 4 4 3 2 7 6 3 27 31 30 26 25 28 29 30 29 28 26 26 27 26 25 24 23 22 21 17 15 13 12 11 10 8 6 5 3 1 1 2 3 3
6 6 11 13 16 6 4 2 2 2 5 4 2 1 5 26 30 26 24 23 25 33 32 32 29 27 29 30 29 27 26 25 22 19 17 15 13 13 11 10 8 6 4 2 0 2 3 3 3
7 18 12 13 9 9 6 4 4 4 3 8 10 7 11 17 22 23 23 28 30 30 34 33 31 31 33 33 31 29 26 23 21 20 19 16 15 13 11 9 7 5 3 2 0 2 3 4 5
7 10 19 12 9 3 5 3 4 7 8 2 8 7 11 16 18 20 24 26 28 34 37 34 34 34 34 34 32 30 28 25 24 22 20 19 18 15 12 10 7 6 4 3 2 2 3 4 5
14 2 7 17 17 9 6 8 8 7 11 8 5 9 16 17 20 25 22 21 25 32 38 38 38 39 37 34 32 30 28 27 24 23 21 19 17 16 14 11 9 7 5 3 3 3 3 4 5
3 13 22 12 8 5 11 13 6 7 9 7 8 12 11 15 19 16 22 26 32 32 41 41 40 40 39 37 34 32 29 26 24 23 22 20 18 17 15 12 10 8 6 4 3 3 4 6 7
14 18 17 16 8 7 5 18 21 9 11 9 10 10 14 17 16 20 35 31 38 41 37 44 43 40 41 38 35 33 31 28 27 24 22 22 21 19 17 15 12 10 7 5 4 4 5 6 7
4 4 17 18 13 7 10 27 8 19 18 20 12 10 10 15 13 29 26 32 35 33 41 41 43 42 40 39 35 34 32 30 28 26 24 22 20 19 18 16 14 12 10 7 5 5 5 6 8
7 17 13 10 5 8 16 21 13 10 15 21 17 14 13 15 14 24 29 34 33 40 39 43 44 45 43 40 37 34 32 31 29 26 25 23 22 21 18 16 14 13 10 7 6 5 6 8 10
26 12 4 7 9 15 14 28 12 14 19 18 14 12 14 13 18 29 35 37 35 37 38 43 44 44 43 41 37 34 33 32 30 29 26 24 23 21 20 17 15 13 11 8 6 5 5 7 10
23 17 16 12 7 10 23 28 19 13 7 10 10 9 12 15 17 22 27 33 35 37 39 44 45 45 44 43 41 36 36 34 32 30 28 26 23 21 20 18 16 14 11 8 7 6 5 5 6
25 24 23 10 10 9 15 22 9 10 13 18 16 16 12 9 9 8 20 28 32 37 39 37 44 44 47 42 40 29 36 37 34 30 28 26 25 23 21 19 16 14 12 10 8 7 4 3 2
25 25 24 21 4 14 3 23 17 7 8 9 8 14 13 15 12 9 10 24 31 31 37 40 43 44 45 42 40 28 30 25 30 30 30 29 27 25 23 20 18 15 14 12 10 9 8 6 4
28 28 24 22 14 19 10 20 18 18 13 12 19 15 14 10 10 11 13 12 27 39 46 41 43 47 46 48 44 41 34 23 30 36 34 30 27 25 23 21 18 16 15 13 12 10 10 9 8
26 23 23 22 17 16 10 9 14 9 9 16 21 18 13 16 16 18 14 20 31 33 33 40 39 40 42 50 46 42 31 31 32 32 33 30 28 25 23 21 19 17 15 13 12 12 10 10 9
20 8 16 13 13 20 21 17 22 7 13 12 16 21 13 16 16 15 15 18 19 23 30 34 39 40 43 45 44 43 36 36 31 32 34 33 29 26 24 21 19 17 15 14 13 13 12 11 10
6 12 9 10 12 16 17 15 22 9 23 28 24 13 14 14 15 13 10 11 15 25 29 30 31 31 38 41 40 40 41 40 39 36 36 36 31 28 27 23 21 18 15 14 14 14 13 12 12
9 12 8 10 4 12 6 9 11 23 26 7 9 12 14 9 8 9 11 11 15 23 28 32 34 31 39 41 41 42 41 38 36 35 35 36 36 33 27 24 20 17 15 14 14 14 13 13 11
8 11 1 1 1 4 3 4 7 5 10 15 18 12 19 10 8 11 9 8 16 22 29 35 33 32 36 39 41 42 38 35 34 31 31 33 32 28 25 22 20 18 16 15 15 15 14 13 11
4 7 6 9 5 9 3 3 5 3 13 14 12 9 7 8 8 8 5 6 11 19 23 28 31 34 35 37 39 38 35 32 31 29 29 28 26 25 22 22 21 20 17 16 16 15 16 16 14
9 4 3 2 2 2 1 4 7 9 8 9 9 6 6 9 7 2 3 5 11 17 21 22 27 30 31 33 34 33 30 27 27 27 26 25 24 22 22 22 22 20 18 17 17 17 18 18 15
3 5 6 3 4 2 4 6 2 1 3 2 7 9 6 2 2 3 3 5 8 12 16 19 22 26 29 31 30 30 28 26 25 24 24 23 22 21 21 20 20 19 19 18 19 20 21 21 19
Wind_Direction
282 261 186 59 83 66 240 250 263 283 291 295 340 197 175 119 161 202 151 144 162 158 158 160 160 159 156 159 161 157 148 144 140 137 132 130 125 124 124 123 119 113 113 116 101 91 82 69 58
247 212 83 84 116 161 253 236 244 230 208 66 0 321 94 187 133 142 144 160 162 159 161 160 160 159 151 151 154 151 144 140 136 131 130 132 130 129 125 127 132 125 111 94 86 83 85 77 60
186 166 102 148 168 205 218 211 237 276 234 189 238 357 143 182 340 161 173 160 164 163 165 163 166 160 150 151 155 151 146 143 140 134 131 127 130 132 124 123 123 111 101 93 85 84 80 79 70
178 32 29 133 226 244 212 190 170 340 329 203 159 220 296 225 167 189 170 166 167 168 171 171 175 164 158 156 155 152 150 148 141 136 131 130 128 130 131 129 128 125 115 105 93 83 69 57 45
93 68 180 236 254 243 233 262 199 252 283 284 182 221 249 322 183 165 164 172 172 169 174 175 172 165 168 162 159 157 153 149 141 135 132 128 128 126 126 125 125 122 120 110 99 74 52 40 38
68 99 153 222 238 233 243 238 267 228 245 268 253 154 230 247 159 167 166 173 177 175 177 175 172 170 183 179 166 161 156 152 145 142 139 136 135 131 126 125 121 121 114 110 107 83 55 34 31
157 143 218 222 252 269 240 168 193 224 229 233 155 168 267 188 178 172 172 175 180 182 181 176 174 177 193 178 171 169 162 156 153 149 146 147 145 145 146 144 138 135 127 109 92 75 57 16 16
149 144 195 222 239 258 230 178 193 180 241 124 151 198 231 200 173 172 173 176 180 187 190 185 181 181 195 184 178 174 170 167 165 164 166 165 166 168 166 162 158 151 142 137 132 108 28 13 357
138 181 203 210 218 227 62 180 197 170 213 214 187 159 303 158 166 168 170 176 182 191 194 195 192 194 193 186 184 181 176 172 171 173 176 176 170 168 167 170 168 167 169 156 141 320 328 328 330
175 214 219 223 223 227 228 187 224 203 166 229 223 240 146 151 162 168 175 183 186 190 191 196 200 202 189 188 186 186 182 181 180 179 177 174 173 173 173 177 181 177 180 186 101 13 13 4 349
205 234 227 236 238 225 228 234 211 185 244 220 216 174 165 163 174 182 188 191 191 192 194 194 199 199 193 191 190 190 190 186 182 183 180 181 182 185 182 180 177 173 172 180 327 333 337 337 336
239 220 231 238 240 228 216 196 212 182 228 229 238 163 169 175 185 189 193 191 189 194 197 195 196 197 197 197 196 195 193 191 189 190 189 189 189 189 191 191 188 190 196 206 238 289 315 325 331
249 241 225 231 240 225 256 229 228 222 243 247 113 156 185 189 195 197 196 193 191 195 197 200 196 198 200 202 201 199 198 195 193 195 193 193 194 195 195 197 196 200 205 224 259 285 307 320 323
229 225 244 252 243 222 232 254 191 234 247 239 174 194 198 202 200 180 187 193 197 197 201 201 201 202 201 202 204 204 203 201 200 200 199 198 200 199 198 199 199 205 209 223 251 284 307 313 314
248 263 269 245 244 242 190 261 241 226 255 243 219 212 203 211 201 198 199 194 198 203 201 204 204 204 206 206 207 207 206 204 204 203 203 203 203 202 202 201 203 207 212 223 242 275 293 304 308
231 215 242 244 233 216 170 253 227 220 232 244 212 221 212 221 208 217 212 205 201 198 204 203 205 207 208 208 208 209 207 207 206 205 204 205 207 208 205 206 204 203 206 221 244 269 286 298 307
222 243 237 252 216 208 199 260 225 205 219 240 231 219 219 226 218 224 219 216 204 201 199 204 207 208 208 209 209 209 208 208 208 208 208 206 208 209 210 209 206 203 209 224 241 262 290 303 309
231 229 219 191 190 211 234 248 236 210 217 226 228 217 228 227 219 216 218 217 209 204 201 202 204 209 208 209 210 208 208 210 209 208 210 211 209 208 209 210 210 211 215 225 239 257 282 303 310
239 239 239 233 238 196 224 247 236 226 234 232 234 218 225 234 238 222 215 211 206 204 199 203 199 203 203 202 201 204 204 205 207 208 208 208 212 213 213 213 212 215 222 226 233 248 273 298 312
228 238 246 259 229 240 251 257 240 222 234 243 239 242 231 231 244 219 202 199 201 202 203 198 203 200 202 198 198 197 202 205 207 206 209 211 211 211 213 215 215 217 221 224 230 243 246 251 279
236 238 240 240 216 237 234 265 251 241 234 252 246 236 238 225 234 217 200 199 202 200 202 202 201 202 200 200 197 192 200 204 203 205 207 207 210 211 213 214 215 218 222 229 234 240 236 226 222
234 225 232 239 235 242 171 261 246 236 235 236 247 238 240 223 232 241 209 202 198 206 207 202 199 200 197 198 193 192 191 190 202 204 205 205 208 210 213 215 217 220 222 226 233 237 239 233 222
229 218 217 224 234 243 218 252 246 217 232 228 242 250 229 234 227 232 226 211 208 206 199 198 195 194 193 197 195 192 191 194 202 204 203 203 205 210 213 215 216 221 224 227 230 230 230 233 230
229 197 216 217 217 235 231 221 255 206 223 237 240 249 234 233 239 231 228 216 211 199 195 190 188 191 193 193 193 193 191 192 191 195 199 202 204 207 211 213 217 220 227 230 229 228 224 226 233
254 196 215 219 216 236 220 221 238 220 233 236 238 242 239 225 237 233 210 201 194 186 187 185 184 185 190 191 194 195 200 200 200 197 197 200 203 206 207 209 211 219 225 228 226 222 219 217 226
207 237 207 210 192 226 161 209 229 223 246 236 242 238 254 232 229 236 231 206 193 185 182 184 185 183 189 191 195 201 206 205 205 205 205 207 208 211 209 211 215 218 220 221 221 221 221 213 219
192 224 325 319 4 63 201 280 309 175 232 235 247 240 255 251 237 244 246 204 189 186 189 188 184 184 185 188 194 200 202 204 204 206 210 209 210 213 210 215 217 216 218 218 219 218 215 213 218
180 166 196 220 215 217 244 263 217 223 216 229 247 237 284 296 279 268 242 188 176 179 182 186 184 179 181 187 194 197 197 199 201 202 201 204 202 203 210 213 214 215 217 217 219 216 214 220 226
187 218 171 120 169 85 46 267 214 237 217 237 262 300 296 282 284 284 62 69 124 151 157 160 165 166 172 183 185 186 184 187 190 192 193 195 200 206 209 211 212 214 214 215 218 219 222 226 227
183 234 184 135 221 221 156 266 244 184 271 289 309 307 305 3 32 61 58 70 85 111 129 137 148 155 167 172 170 172 175 180 186 189 191 196 200 204 206 206 211 215 218 224 229 231 233 235 240